Jacksonville, AR

5:44 AM CST on February 11, 2016 (GMT -0600)
Little Rock Air Force Base

Weather History for KLRF - March, 2013

Change the Weather History Date:

Sunday, March 3, 2013

  Actual Average (KLIT) Record (KLIT)
Temperature  
Mean Temperature 36 °F 50 °F  
Max Temperature 52 °F 59 °F 80 °F (1976)
Min Temperature 20 °F 41 °F 14 °F (2014)
Degree Days  
Heating Degree Days 29 15  
Month to date heating degree days 47  
Since 1 July heating degree days 2533  
Cooling Degree Days 0 0  
Month to date cooling degree days 0  
Year to date cooling degree days 2  
Moisture  
Dew Point 24 °F    
Average Humidity 63    
Maximum Humidity 89    
Minimum Humidity 36    
Precipitation  
Precipitation 0.00 in 0.14 in 2.99 in (1977)
Month to date precipitation 0.43  
Year to date precipitation 7.51  
Snow  
Snow 0.00 in 0.10 in 1.50 in (1995)
Month to date snowfall 0.1  
Since 1 July snowfall 4.1  
Snow Depth -    
Sea Level Pressure  
Sea Level Pressure 30.15 in    
Wind  
Wind Speed 3 mph (SE)    
Max Wind Speed 10 mph    
Max Gust Speed 17 mph    
Visibility 10 miles    
Events      
T = Trace of Precipitation, MM = Missing Value Source: NWS Daily Summary

Daily Weather History Graph

Daily Weather History Graph

Search for Another Location

Airport or City:

Trip Planner

Search our weather history database for the weather conditions in past years. The results will help you decide how hot, cold, wet, or windy it might be!

Date:

Astronomy

Mar. 03, 2013 Rise Set
Actual Time 6:35 AM CST 6:06 PM CST
Civil Twilight 6:09 AM CST 6:31 PM CST
Nautical Twilight 5:40 AM CST 7:01 PM CST
Astronomical Twilight 5:11 AM CST 7:30 PM CST
Moon No Moon Rise 10:06 AM CST (3/3)
Length of Visible Light 12h 21m
Length of Day
11h 31m
Waning Gibbous, 63% of the Moon is Illuminated
Mar 3
Waning Gibbous
Mar 4
Last Quarter
Mar 11
New
Mar 19
First Quarter
Mar 27
Full

Hourly Weather History & Observations

Time (CST) Temp. Windchill Dew Point Humidity Pressure Visibility Wind Dir Wind Speed Gust Speed Precip Events Conditions
12:58 AM 21.9 °F - 18.7 °F 87% 30.26 in 10.0 mi Calm Calm - N/A   Clear
1:58 AM 21.6 °F 15.3 °F 17.8 °F 85% 30.26 in 10.0 mi WSW 4.6 mph - N/A   Clear
2:58 AM 21.2 °F - 18.0 °F 87% 30.25 in 10.0 mi Calm Calm - N/A   Clear
3:58 AM 20.8 °F - 17.8 °F 88% 30.24 in 10.0 mi Calm Calm - N/A   Clear
4:58 AM 20.3 °F - 17.6 °F 89% 30.22 in 10.0 mi Calm Calm - N/A   Clear
5:58 AM 20.5 °F - 17.2 °F 87% 30.23 in 10.0 mi Calm Calm - N/A   Clear
6:58 AM 21.9 °F - 18.5 °F 87% 30.23 in 10.0 mi Calm Calm - N/A   Mostly Cloudy
7:58 AM 26.4 °F - 21.6 °F 82% 30.26 in 10.0 mi ENE 2.3 mph - N/A   Clear
8:58 AM 34.5 °F 27.9 °F 24.6 °F 67% 30.28 in 10.0 mi SW 8.1 mph - N/A   Clear
9:58 AM 37.9 °F 32.7 °F 21.0 °F 51% 30.26 in 10.0 mi SSW 6.9 mph - N/A   Clear
10:58 AM 40.8 °F 36.9 °F 22.1 °F 47% 30.24 in 10.0 mi Variable 5.8 mph - N/A   Clear
11:58 AM 44.8 °F 40.4 °F 24.1 °F 44% 30.20 in 10.0 mi SSE 8.1 mph - N/A   Clear
12:58 PM 47.1 °F - 23.9 °F 40% 30.16 in 10.0 mi Variable 5.8 mph 16.1 mph N/A   Partly Cloudy
1:58 PM 49.5 °F - 23.4 °F 36% 30.13 in 10.0 mi Variable 3.5 mph - N/A   Scattered Clouds
2:58 PM 50.7 °F - 27.0 °F 40% 30.09 in 10.0 mi ESE 10.4 mph - N/A   Scattered Clouds
3:58 PM 52.0 °F - 27.3 °F 39% 30.06 in 10.0 mi SSE 10.4 mph 17.3 mph N/A   Partly Cloudy
4:58 PM 50.5 °F - 29.3 °F 44% 30.05 in 10.0 mi ESE 9.2 mph - N/A   Clear
5:58 PM 47.7 °F - 29.1 °F 49% 30.05 in 10.0 mi ESE 5.8 mph - N/A   Clear
6:58 PM 45.3 °F 43.0 °F 28.6 °F 52% 30.04 in 10.0 mi ESE 4.6 mph - N/A   Clear
7:58 PM 44.8 °F 42.4 °F 30.2 °F 57% 30.05 in 10.0 mi ESE 4.6 mph - N/A   Clear
8:58 PM 44.4 °F 41.2 °F 31.1 °F 60% 30.04 in 10.0 mi Variable 5.8 mph - N/A   Clear
9:58 PM 44.1 °F 40.8 °F 31.3 °F 61% 30.03 in 10.0 mi SE 5.8 mph - N/A   Partly Cloudy
10:58 PM 43.0 °F 38.8 °F 30.2 °F 61% 30.01 in 10.0 mi SE 6.9 mph - N/A   Partly Cloudy
11:58 PM 42.4 °F 38.1 °F 29.8 °F 61% 30.01 in 10.0 mi SE 6.9 mph - N/A   Clear